Other Public Products
Issued by NWS Charleston, SC

Current Version | Previous Version | Graphics & Text | Print | Product List | Glossary On
Versions: 1 2 3 4 5 6 7 8 9 10 11 12 13 14 15 16 17 18 19 20 21 22 23 24 25 26 27 28 29 30 31 32 33 34 35 36 37 38 39 40 41 42 43 44 45 46 47 48 49 50
000
FPUS82 KCHS 170527
OPUCHS

TEST...KCHS/KSAV Gateway Observations...TEST
National Weather Service Charleston SC
1200 AM EST TUE JAN 17 2017

NOTE: "fair" indicates few or no clouds below 12,000 feet with no
significant weather and/or obstructions to visibility.

SCZ050-WAZ558-NCZ071-TXZ119-213-PAZ071-DCZ001-FLZ074-172-MI076-
NYZ176-178-MAZ016-IL014-TNZ027-NJZ106-GAZ044-MD014-170600-
...Gateway Observations for Charleston International...

CITY           SKY/WX    TMP DP  RH WIND       PRES   REMARKS
Chas Airport   PTCLDY    53  51  93 CALM      30.29F
Seattle        CLOUDY    45  30  55 S6        29.97F
Charlotte      CLOUDY    50  46  86 CALM      30.31F
Dallas DFW     CLOUDY    50  41  71 NE5       30.08R
Dallas Love    CLOUDY    54  42  64 CALM      30.09R
Philladelphia  CLOUDY    39  28  64 S3        30.33F
Wash National  LGT RAIN  41  38  89 S6        30.31F
Baltimore      CLOUDY    40  31  70 CALM      30.29F
Miami          PTCLDY    75  61  61 E10       30.21F
Detroit        FRZ RAIN  33  31  92 E8        30.09F FOG     WCI  26
Newark         CLOUDY    40  25  55 SW8       30.30F WCI  34
Laguardia      CLOUDY    42  25  50 SW10      30.28F
J F K          CLOUDY    41  26  55 SW10      30.31F
Boston Logan   NOT AVBL
Ft. Lauderdale CLEAR     74  61  63 E15       30.20F
Chicago O`Hare DRIZZLE   37  36  96 NE8       29.86F FOG     WCI  31
Chicago Midway FOG       37  37 100 NE6       29.86F VSB 1   WCI  32
Houston Bush   CLOUDY    73  68  84 S7        30.02R
Houston Hobby  CLOUDY    71  69  93 S8        30.02R
Nashville      CLOUDY    63  54  72 S14       30.04F
Atlanta        PTCLDY    58  55  90 E9        30.24F

$$

GAZ044-118-TXZ119-213-NCZ071-DCZ001-MDZ014-506-PAZ021-071-NJZ106-
NYZ176-178-MAZ106-OHZ011-021-055-MIZ076-KYZ091-ILZ014-INZ047-
MNZ060-170600-
...Gateway Observations for Savannah International...

CITY           SKY/WX    TMP DP  RH WIND       PRES   REMARKS
Savannah Arpt  FOG       58  56  93 E5        30.30S VSB 3/4
Atlanta        PTCLDY    58  55  90 E9        30.24F
Charlotte      CLOUDY    50  46  86 CALM      30.31F
Dallas DFW     CLOUDY    50  41  71 NE5       30.08R
Houston Bush   CLOUDY    73  68  84 S7        30.02R
Wash National  LGT RAIN  41  38  89 S6        30.31F
Wash Dulles    CLOUDY    40  36  86 SE6       30.27F WCI  36
Baltimore      CLOUDY    40  31  70 CALM      30.29F
Philadelphia   CLOUDY    39  28  64 S3        30.33F
Newark         CLOUDY    40  25  55 SW8       30.30F WCI  34
Laguardia      CLOUDY    42  25  50 SW10      30.28F
J F K          CLOUDY    41  26  55 SW10      30.31F
Boston         NOT AVBL
Pittsburg      CLOUDY    37  36  96 CALM      30.13F
Akron          LGT RAIN  40  35  83 SE7       30.09F WCI  35
Cleveland      LGT RAIN  41  36  82 S7        30.13F
Cincinnati     LGT RAIN  54  53  97 S9        30.03F
Columbus         N/A     44  44 100 CALM      30.06F FOG
Detroit        FRZ RAIN  33  31  92 E8        30.09F FOG     WCI  26
Chicago O`Hare DRIZZLE   37  36  96 NE8       29.86F FOG     WCI  31
Minneapolis    FRZ RAIN  30  26  85 N8        29.97S FOG     WCI  22
Indianapolis   LGT RAIN  51  50  96 NE3       29.97S FOG

$$




USA.gov is the U.S. government's official web portal to all federal, state and local government web resources and services.